Volver al catálogo

DELTA 1 R/B

ActivoUNKNOWN
NORAD 341·ROCKET BODY·🇺🇸 United States

Lanzado Jul 10, 1962 desde Cape Canaveral Space Force Station

Loading…

Próximos Pases (próximas 24 horas)

TLE

ActualizadoSource: Space-Track

Época: Sep 5, 2026, 12:11 UTC

1 00341U 62029B   26248.50789972 -.00000045  00000-0  11622-4 0  9992
2 00341  44.7900  65.4407 2421130  61.3312 341.8535  9.14329441142484

Sigue DELTA 1 R/B en tiempo real con AllMySat

Download on the App Store